User: anonymous
Location: Unspecified
(0.0000°N, 0.0000°E)
Time: 17:26:58
(UTC+02:00)
Language:

Cosmos 1315 Rocket - Orbit

View from above orbital plane
View from above orbital plane
View from above satellite
View from above satellite

Ground track
Ground track

The orbit data is extracted from the following two-line orbital elements,

1 12904U 81103B   14106.47933662  .00002101  00000-0  15626-3 0  4690
2 12904 081.1780 155.5572 0028953 268.2192 091.5712 15.02268564318781
Epoch (UTC): 16 April 2014 11:30:14
Eccentricity: 0.0028953
inclination: 81.1780°
perigee height: 540 km
apogee height: 580 km
right ascension of ascending node: 155.5572°
argument of perigee: 268.2192°
revolutions per day: 15.02268564
mean anomaly at epoch: 91.5712°
orbit number at epoch: 31878

The dashed part of the orbit path shows where the satellite is in the earth's shadow,  

DLR